Theta_e
311 310 310 310 312 313 313 314 316 316 314 313 313 310 307 306 307 307 308 308 307 308 308 310 311 312 312 313 314 314 313 314 312 311 310 311 310 309 309 308 310 311 312 312
310 310 309 310 311 312 313 315 316 316 312 313 311 311 307 305 305 306 307 307 307 308 308 310 310 311 312 312 312 312 312 311 310 310 310 310 310 309 309 309 310 311 309 310
310 310 309 310 310 311 311 314 314 316 311 310 311 312 308 304 305 305 306 306 307 307 308 308 309 309 309 310 310 310 310 310 310 310 310 310 309 309 309 309 308 308 309 309
309 308 309 310 311 310 311 311 314 316 315 315 311 318 309 306 305 305 304 304 305 306 307 307 307 307 308 308 308 308 308 308 308 308 308 308 307 307 307 308 307 308 308 308
309 308 308 309 310 309 311 309 313 315 316 314 312 312 312 306 306 305 304 303 304 304 305 305 306 306 306 306 306 306 307 306 306 306 306 306 306 306 305 306 307 307 307 307
308 307 308 307 308 308 309 311 311 312 315 319 314 313 313 308 308 306 303 302 303 303 303 303 304 305 305 303 304 305 305 305 305 305 304 304 304 304 305 305 305 306 306 306
309 309 307 309 310 311 313 312 313 313 317 317 309 312 315 308 305 304 302 300 300 301 301 302 302 303 305 302 303 304 305 305 304 304 304 303 303 303 303 303 303 303 304 304
309 311 308 307 309 311 312 312 314 315 314 312 310 313 311 302 301 303 301 300 299 299 300 301 301 301 302 302 302 303 303 304 304 303 303 303 302 302 302 301 301 301 301 301
308 309 307 307 307 310 312 314 311 313 304 311 310 308 302 299 298 297 296 297 297 297 298 299 300 301 300 300 300 301 301 302 301 301 300 300 300 300 300 300 300 300 299 299
307 310 306 307 308 307 310 310 314 313 317 316 312 311 312 302 300 297 295 294 295 296 296 296 297 298 298 298 299 299 299 299 299 299 299 299 299 299 298 297 295 293 291 290
305 307 307 307 307 309 310 311 311 312 312 314 312 310 304 303 301 297 295 294 295 294 295 295 296 296 297 297 297 298 297 297 297 297 296 295 293 291 290 290 290 290 289 289
304 305 307 307 305 305 307 310 309 315 311 307 309 309 298 298 299 297 295 294 294 295 294 295 295 295 295 295 295 296 295 295 294 292 291 290 289 289 289 289 289 288 289 288
305 300 301 306 306 304 306 306 309 305 306 308 311 310 297 297 297 296 294 294 294 294 293 293 293 293 294 293 294 293 291 291 290 288 288 288 288 288 288 288 288 288 288 288
306 305 307 308 308 306 308 307 308 311 312 310 309 307 299 296 295 294 293 294 294 293 294 293 292 292 292 291 291 289 289 288 288 288 288 288 288 288 287 287 287 287 287 287
305 306 303 307 308 307 307 309 308 310 311 311 310 305 304 299 296 294 293 294 293 293 293 293 292 291 290 289 288 288 287 287 287 287 287 287 287 287 287 287 287 287 287 287
307 303 303 303 307 305 305 306 308 308 309 309 305 303 301 299 297 293 293 293 292 293 293 292 291 290 289 288 287 287 287 287 287 287 287 287 286 286 286 286 286 286 286 285
308 306 304 307 307 308 306 307 306 307 307 308 308 309 297 295 296 294 293 294 293 294 294 293 292 291 290 288 287 287 287 286 286 286 286 286 286 286 286 286 285 285 285 285
309 309 308 309 310 312 308 302 305 306 306 306 303 301 300 298 300 297 297 296 295 295 294 294 293 291 288 287 286 286 286 286 286 286 286 285 285 286 286 285 285 285 284 284
308 309 310 312 311 308 308 301 304 306 307 303 305 300 298 297 297 295 297 298 298 298 296 296 294 292 288 287 286 286 286 286 285 285 285 285 285 285 285 285 284 284 283 283
305 308 310 307 311 311 306 301 302 304 310 304 303 299 295 296 299 297 299 298 297 299 298 296 293 290 288 286 286 286 286 285 285 285 285 285 285 285 284 284 283 283 283 283
307 309 310 310 311 305 301 298 303 308 306 304 304 301 296 300 303 305 303 297 298 298 297 295 293 290 288 287 286 286 285 285 285 285 285 284 284 284 284 283 283 283 282 282
309 311 310 306 309 308 297 298 307 304 300 301 302 300 298 299 301 304 301 297 296 297 297 296 292 289 287 286 286 286 285 285 285 284 284 284 284 283 283 282 282 282 282 281
304 305 305 307 308 295 299 300 301 300 299 299 301 299 299 299 301 300 297 296 297 297 296 294 292 289 287 286 286 285 285 285 284 284 284 283 283 283 282 282 282 281 281 281
292 287 299 302 299 295 298 302 302 302 300 300 300 300 299 300 300 299 297 294 295 296 296 293 291 289 287 286 285 285 285 284 284 284 283 283 283 282 282 281 281 281 281 281
293 290 293 295 292 292 294 299 302 301 300 301 300 301 300 300 299 300 296 295 296 296 295 294 292 289 287 286 285 285 284 284 284 283 283 282 282 282 281 281 281 281 280 280
289 295 299 303 295 301 301 302 301 302 301 301 303 301 300 300 301 299 298 297 297 296 295 293 290 288 287 286 285 285 284 284 284 283 283 282 282 281 280 280 280 280 280 280
Wind_Speed
4 3 5 7 7 4 6 2 7 8 4 4 5 6 6 5 6 5 7 9 11 13 11 10 10 11 10 9 7 5 3 1 2 2 1 2 4 7 7 8 9 10 14 15
4 5 7 6 7 6 4 5 3 1 4 3 6 4 3 5 4 5 6 8 10 10 8 8 7 7 7 6 5 4 2 2 2 2 2 2 4 7 10 9 9 13 13 13
7 4 9 5 4 4 2 7 7 5 3 3 4 3 6 4 7 7 6 8 9 9 7 6 5 5 5 5 5 4 4 4 3 3 2 3 3 4 8 10 11 12 11 12
4 2 8 5 6 5 4 6 7 5 3 2 2 4 4 7 8 11 11 10 10 9 8 6 4 4 4 5 5 5 5 3 3 2 3 4 5 9 9 7 7 8 9 10
7 8 6 4 6 7 6 5 8 5 9 3 2 1 3 6 7 12 15 13 11 10 10 9 6 4 3 5 5 6 5 3 4 6 7 9 9 8 7 5 5 6 9 10
4 2 6 9 4 8 8 6 6 4 3 7 7 6 4 7 7 10 19 20 17 14 13 10 7 6 4 4 5 6 5 3 4 6 7 9 9 9 7 7 6 7 8 10
2 2 2 3 5 2 2 6 2 1 2 4 3 6 12 4 4 12 23 25 22 19 15 11 9 8 6 6 6 6 5 4 4 4 4 5 7 6 6 7 7 7 7 8
7 4 7 4 7 8 6 6 5 6 4 3 2 6 5 1 1 9 24 30 23 19 16 14 11 9 8 7 7 7 6 6 5 4 4 6 6 7 9 11 12 13 13 14
6 6 2 3 3 7 5 4 4 5 2 2 4 5 3 3 4 11 19 25 22 19 17 13 12 11 10 9 8 8 8 8 8 8 10 11 13 14 15 16 16 16 16 17
6 4 2 3 4 1 6 7 3 2 2 4 4 4 6 8 12 10 14 20 21 19 18 16 15 13 12 11 11 11 11 12 13 14 14 14 14 14 14 14 15 16 16 16
5 3 1 4 7 8 3 3 2 4 4 4 2 5 2 4 14 15 16 21 26 22 19 17 15 15 14 14 14 15 15 16 16 14 13 13 13 13 13 13 14 15 15 15
5 5 4 7 4 3 3 8 7 5 5 4 1 6 1 5 11 24 23 26 25 22 20 18 17 17 18 18 18 18 17 15 14 13 13 12 12 12 12 13 14 14 14 15
6 2 3 5 5 1 5 5 7 3 2 7 6 5 2 5 13 21 26 30 28 25 22 21 20 20 21 21 20 18 16 15 14 13 11 11 11 11 11 12 13 12 12 13
7 4 8 12 2 7 7 7 10 14 8 6 11 6 5 6 9 17 25 32 31 29 27 25 25 24 24 22 20 18 17 15 14 12 11 10 10 10 11 11 11 11 12 12
6 10 4 2 2 1 3 15 15 20 22 13 13 10 5 15 17 27 32 35 35 33 31 30 29 28 26 24 22 20 17 15 14 12 10 9 10 10 9 9 9 9 9 11
3 3 3 2 4 3 3 8 17 24 20 18 3 8 1 7 23 26 33 38 38 40 37 35 33 31 29 26 23 21 18 16 13 11 10 9 9 8 8 7 8 8 9 10
8 6 4 5 6 3 7 20 15 12 18 14 17 21 6 6 18 31 36 45 46 45 42 40 38 34 31 28 24 22 19 16 13 11 10 10 9 8 7 6 6 6 7 9
14 14 5 4 4 9 12 2 7 21 13 20 3 8 18 16 33 31 42 49 46 47 45 42 39 36 32 29 26 22 19 16 14 12 11 10 9 7 6 5 4 4 7 8
17 15 7 8 13 8 8 6 8 9 15 17 23 8 11 14 17 14 41 47 48 47 45 42 39 36 34 31 27 24 20 17 15 13 12 11 9 7 5 4 3 4 6 8
6 17 11 4 10 13 12 7 12 5 15 15 23 15 15 24 8 8 44 47 45 43 44 43 40 37 35 32 28 25 21 17 15 13 12 11 9 7 5 3 2 3 5 6
9 10 17 12 6 8 6 9 13 8 8 9 33 35 36 14 14 22 36 46 45 46 46 43 40 39 36 33 30 26 22 17 15 13 12 11 9 7 5 3 1 2 3 4
14 11 7 3 9 14 12 6 14 5 3 5 20 28 30 16 16 17 32 46 50 48 46 43 42 41 37 34 31 27 22 18 16 14 13 11 9 8 6 5 3 3 2 2
4 7 7 12 10 3 32 4 15 3 3 7 19 27 34 24 22 25 34 45 47 47 47 44 42 41 39 36 32 27 23 19 17 15 13 12 11 9 8 7 5 3 2 1
4 2 4 4 7 6 30 22 16 12 6 7 14 26 33 29 24 28 33 43 47 47 46 44 43 42 41 38 32 26 22 20 17 15 14 14 13 11 10 8 7 5 4 4
3 2 5 5 2 2 13 35 18 16 8 9 15 23 29 29 28 29 34 42 46 46 46 45 44 43 40 37 33 29 25 21 18 17 16 16 15 13 12 10 8 7 7 6
10 6 4 5 11 8 9 34 31 23 18 17 20 24 26 26 25 27 32 39 45 47 46 44 43 41 39 35 32 28 25 22 19 18 18 17 15 15 13 11 10 10 10 8
Wind_Direction
152 120 194 183 184 164 167 151 162 177 225 131 194 166 169 130 110 111 108 104 99 90 88 96 104 112 120 134 142 152 177 249 287 272 299 339 12 33 42 48 46 40 48 50
69 221 218 193 183 148 156 142 135 175 313 166 183 192 148 165 180 160 157 139 129 122 119 109 108 120 127 126 125 129 135 107 135 155 138 86 68 62 57 54 50 54 51 51
164 234 164 156 143 134 201 183 172 169 134 47 116 268 193 184 163 166 180 164 155 151 137 122 119 118 123 132 124 116 121 117 123 105 108 113 88 89 81 68 56 50 44 44
200 158 157 164 178 146 202 203 169 193 80 230 199 272 228 175 177 187 189 181 167 149 150 154 154 137 112 113 121 127 124 126 129 138 168 150 109 87 76 63 52 39 33 28
228 170 146 166 197 170 224 159 188 162 184 35 268 18 249 134 203 206 193 190 174 168 162 169 168 152 136 126 138 138 123 121 127 112 104 96 95 91 85 73 55 45 34 29
186 182 153 196 168 175 155 94 57 63 56 239 201 175 242 191 203 174 178 187 173 178 179 174 163 149 173 172 152 137 126 133 111 111 106 103 98 95 95 85 75 62 47 37
115 204 284 163 100 67 137 121 54 22 232 233 163 195 239 192 187 183 173 176 182 183 182 178 178 176 178 193 176 148 139 132 118 101 86 82 82 88 86 79 69 66 62 55
156 212 176 184 176 174 196 159 156 196 201 241 92 227 249 58 82 180 171 177 179 181 183 180 184 182 185 186 174 159 153 149 131 120 105 95 89 85 82 75 71 68 62 57
144 223 121 169 167 160 210 177 161 109 84 35 223 277 219 160 136 141 152 172 177 180 181 183 183 185 180 173 167 156 152 144 131 123 110 106 98 94 89 85 80 74 70 65
209 156 191 169 133 90 167 162 87 35 162 232 263 265 246 222 200 179 172 171 177 179 179 178 174 171 166 161 157 149 142 136 127 118 114 108 102 95 89 85 80 75 70 67
152 109 183 140 211 160 140 177 101 137 174 198 255 250 194 209 187 186 180 179 183 182 179 176 169 164 161 155 148 143 138 132 127 122 115 109 102 97 92 87 80 75 72 69
205 124 172 198 241 202 183 185 162 191 216 225 191 266 53 241 196 178 174 181 187 185 180 175 170 164 158 153 149 145 143 139 131 126 121 114 105 97 92 85 81 77 71 66
189 245 77 359 335 9 200 195 177 132 117 194 187 248 48 105 140 171 165 179 184 182 178 175 171 167 161 159 155 154 149 143 135 130 126 118 110 103 95 89 83 77 68 60
169 162 196 217 209 142 195 188 199 207 227 198 230 259 195 182 165 166 171 182 183 183 181 178 175 171 167 165 161 157 153 147 141 138 133 128 118 110 101 93 86 75 65 56
175 222 164 211 111 216 226 199 193 210 223 212 241 220 209 197 191 180 178 182 182 184 185 183 179 175 172 169 165 162 157 152 149 146 142 134 122 111 100 94 87 75 64 55
191 251 120 246 154 80 300 241 217 220 222 238 292 240 50 160 159 171 182 183 185 188 188 185 182 180 177 174 170 166 163 159 154 153 151 139 128 121 115 101 86 74 64 54
173 152 126 246 143 125 288 227 215 218 221 214 221 230 149 175 183 186 185 190 191 192 190 187 186 183 180 178 175 170 167 164 161 163 158 148 142 137 127 110 94 78 61 46
195 214 180 165 144 211 249 90 199 209 216 217 256 174 184 192 203 200 198 193 194 195 192 190 187 184 182 179 176 175 172 171 169 169 165 160 156 152 140 123 102 70 53 39
199 196 209 206 210 266 280 200 165 175 243 211 217 183 171 165 163 196 206 207 203 198 195 192 189 186 183 182 180 179 178 177 177 176 173 171 168 165 157 146 108 60 36 24
211 201 202 165 208 213 258 194 176 117 272 192 194 178 156 145 192 217 204 205 202 201 197 192 189 187 187 184 185 184 185 183 182 182 182 182 180 177 176 170 109 41 15 14
186 196 207 202 208 270 173 157 155 163 248 195 195 185 165 187 212 206 203 199 202 198 194 192 190 190 189 188 188 188 190 188 189 190 191 192 191 193 194 192 199 332 352 19
180 184 188 157 200 253 144 114 176 220 243 246 197 187 185 185 176 180 191 190 193 193 192 193 191 191 191 192 192 193 193 194 195 198 200 201 203 206 208 211 236 272 335 40
186 183 175 194 204 173 179 195 200 218 256 224 203 192 188 180 171 175 180 189 190 191 190 190 193 192 193 194 196 197 197 199 202 204 206 209 213 216 218 227 249 267 262 180
268 181 182 124 203 198 195 203 211 226 234 233 205 193 193 184 178 180 185 188 188 189 189 190 193 194 194 195 196 198 203 205 208 211 213 215 219 221 225 237 253 254 242 205
291 151 176 265 228 45 236 213 205 201 201 192 191 195 193 193 187 190 187 189 189 188 191 195 195 196 197 196 197 201 205 208 212 215 218 220 222 226 232 243 254 252 237 221
172 209 200 220 185 158 227 212 201 198 200 194 189 187 192 197 197 192 192 190 190 191 194 196 198 198 198 199 201 205 209 213 217 220 223 222 225 230 236 249 254 247 240 237